sat.trackr.live / text

‹ back to catalog

STARLINK-35026

NORAD 65514 · 2025-198Y

PAYLOAD ACTIVE UNKNOWN

§ Identity

Operator
Country
US
Launch date
2025-09-05
Launch site
AFETR
Launch vehicle
Mass (kg)
RCS (m²)

Purposes: comms

External: N2YO · Heavens-Above · Gunter

§ Orbital elements

Epoch: 2026-09-20T21:13:33.357504Z

Period
93.85 min
Inclination
53.1597°
Eccentricity
0.0001656
Mean motion
15.34404011 rev/d
Perigee alt
461.6 km
Apogee alt
463.8 km
Semi-major
6,840.8 km
B*
4.4433e-4
RAAN
81.6115°
Arg perigee
82.4025°
Mean anomaly
277.7165°
Rev number
5,854

§ Raw data

STARLINK-350261 65514U 25198Y   26263.88441386  .00014667  00000+0  44433-3 0  99912 65514  53.1597  81.6115 0001656  82.4025 277.7165 15.34404011 58544

JSON: /api/v1/satellites/65514 · /tle

For live sub-satellite position, see the globe view (requires WebGL).

§ Visibility from observer

Set your observer location to see the next 7 days of passes ≥ 10°. The values pass through the URL so the page stays shareable.

No JS? Fill the form by hand. The geolocation button needs JavaScript.